FW1396 Weather Reports


Display with metric or nautical units.
time (UTC)temp
F
wind
direction
speed
MPH
gust
MPH
rain 1hr
in
rain 24hr
in
rain mn
in
humidity
%
barometer
mb
20260503182758 70 223 7.0 13.0 0.00 0.00 0.00 42 1000.5
20260503182256 69 240 2.0 11.0 0.00 0.00 0.00 46 1000.7
20260503181757 69 212 7.0 11.0 0.00 0.00 0.00 44 1000.8
20260503181527 69 288 5.0 12.0 0.00 0.00 0.00 44 1000.9
20260503180756 69 257 7.0 12.0 0.00 0.00 0.00 45 1001.0
20260503180256 69 245 4.0 13.0 0.00 0.00 0.00 45 1001.0
20260503175755 69 248 6.0 13.0 0.00 0.00 0.00 45 1001.2
20260503175255 68 266 3.0 14.0 0.00 0.00 0.00 45 1001.3
20260503174755 68 257 8.0 14.0 0.00 0.00 0.00 45 1001.4
20260503174255 68 219 5.0 12.0 0.00 0.00 0.00 46 1001.4
20260503173756 68 255 4.0 12.0 0.00 0.00 0.00 45 1001.6
20260503173255 68 247 7.0 12.0 0.00 0.00 0.00 45 1001.6
20260503173028 68 244 3.0 12.0 0.00 0.00 0.00 47 1001.7
20260503172256 68 233 3.0 12.0 0.00 0.00 0.00 47 1001.9
20260503171756 67 73 5.0 7.0 0.00 0.00 0.00 49 1001.9
20260503171254 67 73 5.0 7.0 0.00 0.00 0.00 49 1002.1
20260503170755 67 261 6.0 7.0 0.00 0.00 0.00 49 1002.1
20260503170253 66 306 4.0 15.0 0.00 0.00 0.00 49 1002.1
20260503150750 61 257 9.0 16.0 0.00 0.00 0.00 54 1003.4
20260503150248 60 228 9.0 17.0 0.00 0.00 0.00 55 1003.5
20260503140248 50 219 2.0 3.0 0.00 0.00 0.00 88 1004.1
20260503131247 42 223 0.0 2.0 0.00 0.00 0.00 95 1004.2
20260503130747 42 223 0.0 2.0 0.00 0.00 0.00 95 1004.3
20260503130247 41 223 0.0 1.0 0.00 0.00 0.00 95 1004.2
20260503110741 38 63 0.0 2.0 0.00 0.00 0.00 92 1003.6
20260503110514 38 63 0.0 2.0 0.00 0.00 0.00 92 1003.6
20260503100240 38 63 0.0 0.0 0.00 0.00 0.00 92 1003.7
20260503090238 38 63 0.0 0.0 0.00 0.00 0.00 91 1003.7
20260503081233 39 63 0.0 0.0 0.00 0.00 0.00 90 1003.8
20260503080734 38 63 0.0 0.0 0.00 0.00 0.00 90 1003.9
20260503080234 39 63 0.0 0.0 0.00 0.00 0.00 90 1003.8
20260503072733 39 63 0.0 0.0 0.00 0.00 0.00 89 1003.9
20260503072233 39 63 0.0 0.0 0.00 0.00 0.00 89 1004.0
20260503072003 39 63 0.0 0.0 0.00 0.00 0.00 89 1003.9
20260503071233 39 63 0.0 0.0 0.00 0.00 0.00 89 1004.1
20260503070730 40 63 0.0 1.0 0.00 0.00 0.00 88 1004.0
20260503070231 40 63 0.0 1.0 0.00 0.00 0.00 88 1004.0
20260503054730 41 63 0.0 0.0 0.00 0.00 0.00 86 1004.1
20260503054232 42 63 0.0 0.0 0.00 0.00 0.00 86 1004.1
20260503053731 42 63 0.0 2.0 0.00 0.00 0.00 86 1004.0
20260503053230 42 63 0.0 2.0 0.00 0.00 0.00 86 1004.0
20260503053001 42 63 0.0 0.0 0.00 0.00 0.00 85 1004.0
20260503052230 42 63 0.0 0.0 0.00 0.00 0.00 85 1003.9
20260503051730 42 63 0.0 0.0 0.00 0.00 0.00 85 1003.8
20260503051229 42 63 0.0 0.0 0.00 0.00 0.00 85 1003.9
20260503050729 42 63 0.0 0.0 0.00 0.00 0.00 85 1003.9
20260503050504 42 63 0.0 0.0 0.00 0.00 0.00 85 1003.8
20260503045730 43 63 0.0 1.0 0.00 0.00 0.00 84 1003.8
20260503045228 43 63 0.0 2.0 0.00 0.00 0.00 84 1003.6
20260503044729 43 63 0.0 2.0 0.00 0.00 0.00 84 1003.6
20260503044230 43 63 0.0 2.0 0.00 0.00 0.00 84 1003.6
20260503043729 43 63 0.0 2.0 0.00 0.00 0.00 84 1003.6
20260503043230 43 63 0.0 2.0 0.00 0.00 0.00 83 1003.6
20260503042728 44 63 0.0 2.0 0.00 0.00 0.00 82 1003.5
20260503042228 44 63 0.0 2.0 0.00 0.00 0.00 82 1003.6
20260503042000 44 63 0.0 1.0 0.00 0.00 0.00 82 1003.5
20260503041229 44 63 0.0 1.0 0.00 0.00 0.00 82 1003.5
20260503040727 44 63 0.0 1.0 0.00 0.00 0.00 81 1003.4
20260503040228 44 63 0.0 2.0 0.00 0.00 0.00 81 1003.4
20260503035729 45 63 0.0 2.0 0.00 0.00 0.00 81 1003.5
20260503034727 45 63 0.0 2.0 0.00 0.00 0.00 80 1003.5
20260503034228 46 63 0.0 1.0 0.00 0.00 0.00 79 1003.5
20260503033728 46 63 0.0 1.0 0.00 0.00 0.00 79 1003.5
20260503033226 46 63 0.0 1.0 0.00 0.00 0.00 78 1003.5
20260503032728 46 63 0.0 2.0 0.00 0.00 0.00 78 1003.5
20260503032228 47 63 0.0 2.0 0.00 0.00 0.00 78 1003.5
20260503031726 47 63 0.0 0.0 0.00 0.00 0.00 77 1003.5
20260503031227 47 63 0.0 0.0 0.00 0.00 0.00 76 1003.5
20260503030728 47 63 0.0 0.0 0.00 0.00 0.00 75 1003.4
20260503030458 48 63 0.0 0.0 0.00 0.00 0.00 74 1003.4
20260503025726 48 63 0.0 0.0 0.00 0.00 0.00 74 1003.3
20260503025458 48 63 0.0 0.0 0.00 0.00 0.00 74 1003.3
20260503024727 49 63 0.0 2.0 0.00 0.00 0.00 73 1003.2
20260503024227 49 63 0.0 2.0 0.00 0.00 0.00 73 1003.2
20260503023725 49 63 0.0 0.0 0.00 0.00 0.00 72 1003.1
20260503023225 49 63 0.0 0.0 0.00 0.00 0.00 72 1003.1
20260503022727 50 63 0.0 2.0 0.00 0.00 0.00 71 1003.0
20260503022226 50 63 0.0 2.0 0.00 0.00 0.00 71 1002.9
20260503021725 51 63 1.0 3.0 0.00 0.00 0.00 70 1002.8
20260503021226 51 63 2.0 3.0 0.00 0.00 0.00 68 1002.8
20260503020725 52 63 0.0 0.0 0.00 0.00 0.00 67 1002.8
20260503020225 52 63 0.0 0.0 0.00 0.00 0.00 65 1002.7
20260503015725 52 63 0.0 0.0 0.00 0.00 0.00 66 1002.7
20260503015226 53 63 0.0 1.0 0.00 0.00 0.00 65 1002.6
20260503014726 53 63 0.0 2.0 0.00 0.00 0.00 64 1002.5
20260503014456 54 63 1.0 2.0 0.00 0.00 0.00 63 1002.5
20260503013724 54 63 1.0 2.0 0.00 0.00 0.00 62 1002.5
20260503013224 55 63 1.0 2.0 0.00 0.00 0.00 61 1002.4
20260503012724 55 63 1.0 2.0 0.00 0.00 0.00 60 1002.3
20260503012226 56 63 1.0 2.0 0.00 0.00 0.00 59 1002.2
20260503011724 56 63 2.0 2.0 0.00 0.00 0.00 58 1002.1
20260503011225 57 63 1.0 2.0 0.00 0.00 0.00 55 1002.2
20260503010725 58 63 1.0 3.0 0.00 0.00 0.00 54 1002.1
20260503010223 59 63 2.0 3.0 0.00 0.00 0.00 52 1002.1
20260503005726 60 63 0.0 2.0 0.00 0.00 0.00 49 1002.0
20260503005223 60 63 1.0 2.0 0.00 0.00 0.00 48 1002.0
20260503004723 60 63 1.0 1.0 0.00 0.00 0.00 47 1002.0
20260503004223 61 63 0.0 2.0 0.00 0.00 0.00 45 1001.9
20260503003723 61 63 0.0 2.0 0.00 0.00 0.00 45 1001.9
20260503003224 61 63 1.0 3.0 0.00 0.00 0.00 43 1001.9
20260503002724 62 63 2.0 4.0 0.00 0.00 0.00 42 1001.9
20260503002224 62 63 1.0 5.0 0.00 0.00 0.00 41 1001.9
20260503001723 62 79 2.0 5.0 0.00 0.00 0.00 40 1001.8
20260503001222 62 69 2.0 4.0 0.00 0.00 0.00 40 1001.8
20260503000723 62 0 2.0 4.0 0.00 0.00 0.00 39 1001.7
20260503000453 63 65 2.0 5.0 0.00 0.00 0.00 39 1001.7
20260502235722 63 65 2.0 5.0 0.00 0.00 0.00 39 1001.6
20260502235220 63 75 3.0 5.0 0.00 0.00 0.00 39 1001.6
20260502234722 64 75 2.0 5.0 0.00 0.00 0.00 38 1001.6
20260502234222 64 68 3.0 5.0 0.00 0.00 0.00 38 1001.6
20260502233953 64 65 2.0 6.0 0.00 0.00 0.00 37 1001.5
20260502233220 64 39 3.0 6.0 0.00 0.00 0.00 38 1001.5
20260502232721 64 102 3.0 7.0 0.00 0.00 0.00 37 1001.5
20260502232221 64 93 4.0 7.0 0.00 0.00 0.00 37 1001.5
20260502231720 65 92 4.0 7.0 0.00 0.00 0.00 37 1001.5
20260502231223 65 104 3.0 7.0 0.00 0.00 0.00 37 1001.5
20260502230722 65 142 3.0 6.0 0.00 0.00 0.00 38 1001.5
20260502230220 65 90 3.0 6.0 0.00 0.00 0.00 36 1001.5
20260502225721 65 358 4.0 6.0 0.00 0.00 0.00 35 1001.4
20260502225221 65 124 2.0 5.0 0.00 0.00 0.00 36 1001.4
20260502224950 65 82 2.0 5.0 0.00 0.00 0.00 36 1001.4
20260502224450 65 276 1.0 7.0 0.00 0.00 0.00 36 1001.4
20260502223720 65 131 3.0 7.0 0.00 0.00 0.00 36 1001.4
20260502223452 65 104 3.0 6.0 0.00 0.00 0.00 37 1001.5
20260502222951 65 0 4.0 6.0 0.00 0.00 0.00 36 1001.5
20260502222222 65 87 2.0 5.0 0.00 0.00 0.00 37 1001.4
20260502221719 65 182 2.0 4.0 0.00 0.00 0.00 36 1001.4
20260502221220 65 14 1.0 4.0 0.00 0.00 0.00 36 1001.4
20260502220720 65 82 2.0 9.0 0.00 0.00 0.00 37 1001.4
20260502220219 65 113 4.0 9.0 0.00 0.00 0.00 36 1001.4
20260502215720 65 82 4.0 9.0 0.00 0.00 0.00 36 1001.3
20260502215220 65 56 4.0 7.0 0.00 0.00 0.00 35 1001.3
20260502214717 65 104 2.0 11.0 0.00 0.00 0.00 36 1001.3
20260502214218 65 59 6.0 11.0 0.00 0.00 0.00 36 1001.3
20260502213720 65 127 2.0 10.0 0.00 0.00 0.00 36 1001.3
20260502213219 65 111 5.0 10.0 0.00 0.00 0.00 37 1001.4
20260502212719 65 32 3.0 12.0 0.00 0.00 0.00 36 1001.3
20260502212218 65 6 4.0 12.0 0.00 0.00 0.00 36 1001.4
20260502211718 66 111 3.0 7.0 0.00 0.00 0.00 36 1001.3
20260502211218 66 283 2.0 10.0 0.00 0.00 0.00 35 1001.3
20260502210718 66 299 4.0 10.0 0.00 0.00 0.00 34 1001.3
20260502210451 66 82 3.0 10.0 0.00 0.00 0.00 35 1001.4
20260502205718 66 69 4.0 10.0 0.00 0.00 0.00 34 1001.3
20260502205218 66 4 2.0 6.0 0.00 0.00 0.00 35 1001.4
20260502204718 65 24 3.0 6.0 0.00 0.00 0.00 34 1001.5
20260502204219 66 94 4.0 6.0 0.00 0.00 0.00 35 1001.4
20260502203716 66 1 3.0 7.0 0.00 0.00 0.00 35 1001.6
20260502203219 66 75 5.0 9.0 0.00 0.00 0.00 37 1001.5
20260502202717 66 45 4.0 13.0 0.00 0.00 0.00 37 1001.6
20260502202217 67 76 4.0 13.0 0.00 0.00 0.00 37 1001.5
20260502201716 67 11 7.0 12.0 0.00 0.00 0.00 35 1001.6
20260502201217 68 45 5.0 9.0 0.00 0.00 0.00 37 1001.4
20260502200948 67 39 2.0 10.0 0.00 0.00 0.00 36 1001.5
20260502200217 67 197 3.0 10.0 0.00 0.00 0.00 39 1001.5
20260502195720 67 326 3.0 7.0 0.00 0.00 0.00 39 1001.7
20260502195216 66 87 4.0 10.0 0.00 0.00 0.00 40 1001.6
20260502194715 66 62 6.0 11.0 0.00 0.00 0.00 37 1001.7
20260502194216 65 94 6.0 13.0 0.00 0.00 0.00 40 1001.8
20260502193719 66 73 5.0 13.0 0.00 0.00 0.00 36 1001.7
20260502193216 66 92 4.0 11.0 0.00 0.00 0.00 36 1001.7
20260502192715 66 56 3.0 11.0 0.00 0.00 0.00 37 1001.6
20260502192215 65 69 4.0 9.0 0.00 0.00 0.00 39 1001.8
20260502191716 65 196 3.0 6.0 0.00 0.00 0.00 40 1001.7
20260502191215 65 196 3.0 6.0 0.00 0.00 0.00 40 1001.8
20260502190714 64 275 3.0 6.0 0.00 0.00 0.00 40 1001.7
20260502190215 64 111 2.0 12.0 0.00 0.00 0.00 41 1001.9
20260502185714 64 355 5.0 12.0 0.00 0.00 0.00 40 1001.9
20260502185445 65 44 5.0 11.0 0.00 0.00 0.00 38 1001.9
20260502184713 65 106 5.0 11.0 0.00 0.00 0.00 38 1001.7
20260502184214 65 54 5.0 13.0 0.00 0.00 0.00 39 1001.8
20260502183714 64 71 7.0 13.0 0.00 0.00 0.00 40 1001.8
20260502183213 64 86 2.0 13.0 0.00 0.00 0.00 42 1001.8
20260502182944 65 69 5.0 14.0 0.00 0.00 0.00 39 1001.8